TimeEST,TemperatureF,Dew PointF,Humidity,Sea Level PressureIn,VisibilityMPH,Wind Direction,Wind SpeedMPH,Gust SpeedMPH,PrecipitationIn,Events,Conditions,WindDirDegrees,DateUTC
12:14 AM,10.4,4.3,76,29.92,10.0,West,15.0,25.3,N/A,,Overcast,280,2013-12-10 05:14:00
12:34 AM,10.2,4.3,77,29.92,10.0,West,18.4,26.5,N/A,,Overcast,280,2013-12-10 05:34:00
12:55 AM,10.2,4.6,78,29.91,10.0,West,17.3,26.5,N/A,,Mostly Cloudy,270,2013-12-10 05:55:00
1:14 AM,10.2,5.0,79,29.91,10.0,West,15.0,20.7,N/A,,Overcast,270,2013-12-10 06:14:00
1:34 AM,10.9,5.9,80,29.91,10.0,West,20.7,28.8,N/A,,Overcast,270,2013-12-10 06:34:00
1:55 AM,10.8,5.9,81,29.91,10.0,West,17.3,24.2,N/A,,Overcast,270,2013-12-10 06:55:00
2:14 AM,11.1,6.4,81,29.92,5.0,West,18.4,25.3,N/A,Snow,Light Snow,280,2013-12-10 07:14:00
2:34 AM,11.3,6.4,81,29.92,7.0,West,18.4,24.2,N/A,Snow,Light Snow,280,2013-12-10 07:34:00
2:55 AM,11.8,6.4,79,29.93,7.0,West,20.7,27.6,N/A,Snow,Light Snow,270,2013-12-10 07:55:00
3:14 AM,11.8,6.6,80,29.92,4.0,West,16.1,25.3,N/A,Snow,Light Snow,270,2013-12-10 08:14:00
3:34 AM,12.0,6.4,78,29.92,7.0,West,20.7,26.5,N/A,Snow,Light Snow,270,2013-12-10 08:34:00
3:54 AM,12.2,6.8,79,29.92,5.0,West,16.1,26.5,N/A,Snow,Light Snow,260,2013-12-10 08:54:00
4:14 AM,12.6,6.3,76,29.92,5.0,West,18.4,25.3,N/A,Snow,Light Snow,280,2013-12-10 09:14:00
4:35 AM,12.2,6.8,79,29.91,2.5,West,16.1,19.6,N/A,Snow,Light Snow,280,2013-12-10 09:35:00
4:54 AM,12.6,8.4,83,29.91,2.0,West,13.8,19.6,N/A,Snow,Light Snow,280,2013-12-10 09:54:00
5:14 AM,12.2,8.8,86,29.90,1.2,WNW,12.7,17.3,N/A,Snow,Light Snow,290,2013-12-10 10:14:00
5:35 AM,12.2,9.0,87,29.89,0.8,WNW,11.5,17.3,N/A,Snow,Snow,290,2013-12-10 10:35:00
5:55 AM,11.1,8.2,88,29.88,1.0,NW,6.9,-,N/A,Snow,Snow,310,2013-12-10 10:55:00
6:14 AM,9.9,7.0,88,29.87,1.2,NW,5.8,-,N/A,Snow,Light Snow,310,2013-12-10 11:14:00
6:35 AM,9.9,6.8,87,29.87,2.0,NW,6.9,-,N/A,Snow,Light Snow,310,2013-12-10 11:35:00
6:55 AM,9.3,6.3,87,29.87,2.0,NW,6.9,-,N/A,Snow,Light Snow,320,2013-12-10 11:55:00
7:14 AM,8.6,5.7,88,29.86,1.0,NNW,5.8,-,N/A,Snow,Light Snow,340,2013-12-10 12:14:00
7:35 AM,8.2,5.0,87,29.86,1.2,WNW,4.6,-,N/A,Snow,Light Snow,300,2013-12-10 12:35:00
7:55 AM,8.2,5.0,87,29.85,1.0,NNW,5.8,-,N/A,Snow,Snow,330,2013-12-10 12:55:00
8:14 AM,7.9,4.8,87,29.85,1.5,NNW,6.9,-,N/A,Snow,Light Snow,330,2013-12-10 13:14:00
8:35 AM,8.1,5.0,87,29.84,0.5,Calm,Calm,-,N/A,Snow,Snow,0,2013-12-10 13:35:00
8:54 AM,8.1,5.0,87,29.84,1.0,Calm,Calm,-,N/A,Snow,Light Snow,0,2013-12-10 13:54:00
9:15 AM,8.2,5.2,87,29.84,1.0,North,3.5,-,N/A,Snow,Light Snow,10,2013-12-10 14:15:00
9:35 AM,8.6,5.7,88,29.84,0.5,Calm,Calm,-,0.01,Snow,Snow,0,2013-12-10 14:35:00
9:54 AM,9.1,6.1,87,29.83,0.5,Calm,Calm,-,0.01,Snow,Snow,0,2013-12-10 14:54:00
10:15 AM,9.7,6.6,87,29.82,0.8,North,3.5,-,N/A,Snow,Light Snow,10,2013-12-10 15:15:00
10:34 AM,10.4,7.3,87,29.82,0.8,North,4.6,-,0.01,Snow,Light Snow,350,2013-12-10 15:34:00
10:55 AM,10.0,6.6,86,29.82,0.5,NNW,6.9,-,0.01,Snow,Snow,340,2013-12-10 15:55:00
11:15 AM,9.9,6.1,85,29.81,0.8,Calm,Calm,-,0.01,Snow,Light Snow,0,2013-12-10 16:15:00
11:34 AM,10.8,6.6,83,29.80,1.0,North,3.5,-,0.01,Snow,Light Snow,10,2013-12-10 16:34:00
11:54 AM,11.5,7.5,84,29.78,2.0,NE,3.5,-,0.02,Snow,Light Snow,40,2013-12-10 16:54:00
12:15 PM,12.4,8.6,85,29.77,3.0,NNE,3.5,-,N/A,Snow,Light Snow,20,2013-12-10 17:15:00
12:34 PM,12.7,9.1,86,29.76,1.2,Calm,Calm,-,N/A,Snow,Light Snow,0,2013-12-10 17:34:00
12:55 PM,13.1,9.7,86,29.74,1.0,NE,8.1,-,N/A,Snow,Light Snow,40,2013-12-10 17:55:00
1:14 PM,14.4,10.6,85,29.73,1.5,NNE,3.5,-,N/A,Snow,Light Snow,30,2013-12-10 18:14:00
1:34 PM,14.5,10.2,83,29.73,0.8,Calm,Calm,-,N/A,Snow,Light Snow,0,2013-12-10 18:34:00
1:55 PM,14.9,11.1,85,29.72,1.0,NNE,4.6,-,N/A,Snow,Light Snow,30,2013-12-10 18:55:00
2:14 PM,15.4,12.2,87,29.72,0.5,NE,4.6,-,N/A,Snow,Snow,40,2013-12-10 19:14:00
2:34 PM,14.9,12.2,89,29.72,0.5,NNE,4.6,-,N/A,Snow,Snow,30,2013-12-10 19:34:00
2:54 PM,14.9,12.2,89,29.72,0.5,North,4.6,-,0.01,Snow,Snow,10,2013-12-10 19:54:00
3:14 PM,15.8,12.9,88,29.72,0.5,North,6.9,-,N/A,Snow,Snow,10,2013-12-10 20:14:00
3:35 PM,14.9,12.0,88,29.74,0.8,NNW,6.9,-,N/A,Snow,Light Snow,330,2013-12-10 20:35:00
3:54 PM,14.4,10.9,86,29.76,0.8,NW,12.7,16.1,N/A,Snow,Light Snow,310,2013-12-10 20:54:00
4:14 PM,14.0,10.2,85,29.77,0.8,WNW,13.8,18.4,N/A,Snow,Light Snow,300,2013-12-10 21:14:00
4:35 PM,14.0,9.3,82,29.79,3.0,WNW,11.5,18.4,N/A,Snow,Light Snow,290,2013-12-10 21:35:00
4:54 PM,13.5,8.4,80,29.80,10.0,WNW,12.7,21.9,N/A,,Overcast,290,2013-12-10 21:54:00
5:14 PM,13.8,9.0,81,29.81,5.0,WNW,10.4,18.4,N/A,Snow,Light Snow,290,2013-12-10 22:14:00
5:35 PM,13.5,9.5,84,29.82,2.5,West,9.2,18.4,N/A,Snow,Light Snow,280,2013-12-10 22:35:00
5:54 PM,13.1,9.7,86,29.83,7.0,West,11.5,-,N/A,Snow,Light Snow,270,2013-12-10 22:54:00
6:14 PM,14.5,8.2,76,29.83,10.0,West,12.7,23.0,N/A,,Clear,280,2013-12-10 23:14:00
6:35 PM,14.9,9.3,79,29.84,10.0,West,17.3,25.3,N/A,,Clear,270,2013-12-10 23:35:00
6:54 PM,15.8,10.4,79,29.85,10.0,West,17.3,25.3,N/A,,Scattered Clouds,260,2013-12-10 23:54:00
7:14 PM,16.9,10.6,76,29.85,7.0,West,19.6,27.6,N/A,Snow,Light Snow,270,2013-12-11 00:14:00
7:35 PM,17.4,10.0,73,29.86,10.0,West,21.9,26.5,N/A,,Overcast,270,2013-12-11 00:35:00
7:54 PM,18.0,10.2,72,29.87,7.0,West,24.2,34.5,N/A,,Overcast,270,2013-12-11 00:54:00
8:15 PM,18.0,10.0,71,29.87,7.0,West,25.3,33.4,N/A,,Overcast,260,2013-12-11 01:15:00
8:35 PM,17.4,8.6,68,29.88,7.0,West,24.2,33.4,N/A,,Overcast,260,2013-12-11 01:35:00
8:54 PM,17.2,8.4,68,29.88,7.0,West,27.6,35.7,N/A,,Overcast,270,2013-12-11 01:54:00
9:15 PM,17.1,8.1,68,29.88,10.0,WNW,19.6,32.2,N/A,,Overcast,290,2013-12-11 02:15:00
9:35 PM,16.2,6.8,67,29.89,7.0,West,18.4,29.9,N/A,,Overcast,280,2013-12-11 02:35:00
9:54 PM,15.3,7.0,70,29.90,10.0,West,21.9,26.5,N/A,,Scattered Clouds,270,2013-12-11 02:54:00
10:15 PM,14.4,6.4,71,29.91,7.0,West,20.7,27.6,N/A,,Clear,280,2013-12-11 03:15:00
10:35 PM,14.0,7.0,74,29.92,10.0,West,19.6,28.8,N/A,,Clear,280,2013-12-11 03:35:00
10:54 PM,13.8,6.8,74,29.94,10.0,West,20.7,27.6,N/A,,Scattered Clouds,280,2013-12-11 03:54:00
11:15 PM,13.8,7.5,76,29.95,10.0,West,21.9,31.1,N/A,,Scattered Clouds,270,2013-12-11 04:15:00
11:35 PM,13.6,7.2,75,29.96,10.0,West,20.7,28.8,N/A,,Scattered Clouds,270,2013-12-11 04:35:00
11:54 PM,13.6,7.3,76,29.96,10.0,West,21.9,32.2,N/A,,Mostly Cloudy,270,2013-12-11 04:54:00